Theta_e
311 315 316 317 317 316 315 313 316 318 316 319 321 322 321 319 317 315 316 312 307 312 317 314 316 316 314 314 306 303 304 303 302 303 302 302 303 303 303 304 305 306 306 307 307 308 308 308 308 309 309 310 311 312 313 314 314 315 315 315 316 316 317 318 317 316 316 316 317 317 317 317 317 317 316 317 318 317 317 317 317 317 317 317 317 317
312 317 318 317 315 314 313 312 313 315 315 316 317 318 317 317 317 313 314 313 308 312 318 314 316 317 316 313 305 302 304 303 301 301 301 301 301 301 302 302 303 304 305 306 306 307 307 308 308 308 308 308 308 309 309 310 311 313 314 314 315 315 315 316 315 314 313 314 313 312 313 314 314 314 314 314 315 314 314 314 314 314 315 314 314 314
315 318 319 315 311 311 313 312 312 313 312 314 314 314 315 315 316 315 313 313 310 312 318 316 315 317 315 308 303 301 302 301 301 301 300 300 300 300 301 301 302 303 304 305 306 306 307 307 307 307 307 307 307 307 307 307 308 309 310 310 311 311 311 311 311 310 309 310 309 309 310 310 310 310 310 310 310 309 310 310 310 310 310 309 309 309
319 322 317 311 309 312 315 313 312 312 311 314 314 314 316 315 317 320 316 313 312 311 315 315 313 315 313 306 303 301 300 300 300 301 300 300 300 300 300 301 302 303 304 305 305 306 306 306 306 306 306 306 306 306 306 307 307 307 307 307 307 307 307 307 307 307 307 307 307 308 308 308 307 307 307 306 306 306 306 306 306 306 306 306 306 306
321 319 310 308 311 314 315 313 313 314 314 316 315 314 316 316 317 320 316 315 315 312 312 313 316 320 316 311 308 302 300 300 299 299 299 299 299 299 300 301 302 303 303 304 305 305 305 305 305 306 306 306 306 306 306 306 306 306 306 306 306 306 307 306 306 307 307 307 307 307 307 306 306 306 305 305 305 305 305 305 305 305 305 305 305 305
320 314 308 313 315 313 315 316 316 316 317 319 319 315 314 316 318 318 316 316 319 319 313 310 319 329 323 316 311 303 302 301 300 299 299 298 298 299 300 301 301 302 303 304 305 305 305 305 305 305 305 306 306 306 306 306 306 306 306 306 306 306 306 306 306 306 306 306 306 306 306 306 306 306 305 305 305 304 305 304 304 304 304 304 304 304
317 311 311 318 318 315 316 317 317 316 317 320 320 316 313 314 317 318 317 318 322 321 312 308 317 326 325 321 311 303 305 303 300 300 299 299 299 299 300 301 301 302 303 304 304 304 305 305 305 305 305 305 305 305 305 305 305 305 305 304 304 305 305 305 305 305 305 305 305 305 305 305 305 305 304 304 304 303 304 303 303 303 303 303 303 303
316 312 313 316 318 317 316 317 316 314 319 323 318 316 316 315 318 319 318 319 320 318 314 314 315 318 323 321 309 303 307 305 302 301 299 299 299 299 300 300 301 302 303 304 304 304 304 304 304 304 304 304 304 305 304 304 304 304 304 304 304 304 304 304 304 304 304 304 304 304 303 303 303 303 303 302 302 302 302 302 301 301 301 301 301 300
312 316 316 315 316 316 316 320 316 313 320 322 312 313 317 316 318 319 318 319 316 314 319 320 315 316 322 319 308 304 308 308 306 304 301 299 299 299 300 300 301 302 303 303 304 304 304 304 304 304 304 304 304 304 304 303 304 303 303 303 303 303 303 303 303 303 303 302 302 302 302 302 301 302 301 301 301 300 300 300 299 299 298 298 297 297
310 312 313 315 318 318 318 317 312 315 319 313 307 310 313 312 315 316 317 319 316 316 323 323 316 316 323 322 313 308 312 313 309 305 302 300 299 299 300 301 301 302 302 303 304 304 304 303 303 303 303 303 303 303 303 303 303 302 302 302 302 302 302 302 302 301 301 301 301 301 301 300 300 300 299 299 298 297 297 297 296 296 295 295 294 294
309 307 309 313 315 314 313 308 305 310 311 306 310 316 315 315 316 316 317 317 317 321 323 318 314 315 319 323 318 312 315 315 310 307 302 299 299 300 300 301 301 302 302 303 303 303 303 303 303 302 302 302 302 302 302 302 302 302 302 301 301 301 301 301 300 300 300 300 300 299 299 299 298 297 297 297 296 295 295 295 294 293 293 293 293 292
310 310 310 310 309 308 310 309 305 305 304 309 319 321 318 318 317 317 319 317 320 326 320 311 311 313 316 322 319 313 313 310 308 308 304 300 300 300 301 301 301 301 302 303 303 303 303 303 302 302 302 302 302 301 301 301 301 301 301 301 301 300 300 300 299 299 299 298 298 297 297 296 295 295 295 295 294 293 293 293 293 292 292 292 292 292
314 316 311 309 308 309 314 316 310 308 307 313 321 320 322 324 321 322 322 318 320 322 313 308 311 312 314 319 318 315 313 307 304 304 302 300 300 301 301 301 300 301 302 302 302 302 302 302 302 302 301 301 301 301 301 301 300 300 300 300 300 299 299 298 298 297 297 297 296 295 295 295 294 294 294 294 293 293 292 292 292 292 292 292 292 292
318 316 311 311 311 309 315 318 315 315 313 314 319 322 325 327 327 328 323 316 316 316 308 306 310 313 314 315 315 313 309 302 299 301 301 301 301 302 301 301 301 300 301 302 302 302 302 302 301 301 301 301 300 300 300 300 300 300 299 299 299 299 297 296 296 296 296 296 295 294 294 294 294 294 294 293 293 293 292 292 292 292 292 292 292 291
321 320 314 315 314 311 314 316 317 318 314 313 318 319 321 326 327 326 324 321 319 315 310 306 310 318 318 312 307 303 299 297 299 301 301 301 302 302 301 300 300 300 301 301 302 302 302 301 301 300 300 300 300 300 300 299 299 299 298 298 298 297 296 295 295 295 295 294 293 293 293 293 293 293 293 293 292 292 292 292 292 292 291 291 291 290
318 322 316 310 308 310 313 311 310 315 315 312 312 316 319 322 322 318 315 316 316 316 314 310 312 317 314 307 300 297 297 297 299 300 301 301 301 301 300 299 299 300 300 301 301 301 301 301 300 300 300 299 299 299 299 299 298 298 297 297 296 296 295 294 293 293 293 293 292 292 292 292 292 292 292 292 292 291 291 291 291 291 290 290 290 290
317 319 313 308 308 308 309 308 307 311 316 313 312 318 317 314 320 320 311 307 309 315 316 313 315 315 311 308 303 300 300 300 298 298 299 300 300 300 299 299 299 300 301 301 301 301 300 300 300 299 299 299 299 299 299 298 297 297 296 296 295 295 294 293 292 292 292 292 292 292 292 292 292 291 291 291 291 291 290 290 290 290 290 290 290 290
322 320 311 310 313 307 304 306 306 305 311 315 317 318 312 310 317 320 315 313 313 317 318 314 315 315 314 314 308 303 305 304 299 297 297 298 299 299 299 299 300 301 301 301 301 300 300 300 299 299 299 298 298 298 298 297 296 295 294 294 294 294 293 292 292 292 292 291 292 292 291 291 291 291 291 291 290 290 290 290 290 289 289 289 289 289
321 321 313 309 312 309 305 309 311 306 307 313 315 312 311 316 318 315 316 320 318 318 320 316 312 312 314 315 312 309 311 309 301 297 297 297 297 298 299 300 300 301 301 300 300 299 299 299 299 299 298 298 298 297 297 296 295 294 293 292 292 292 292 292 291 292 291 291 291 291 291 291 291 291 291 291 290 290 290 290 289 289 289 289 289 289
316 320 318 309 308 310 309 313 317 313 308 309 310 309 312 317 318 315 316 318 318 319 320 317 314 313 314 315 316 315 312 308 303 300 298 297 297 299 300 300 301 301 301 300 300 299 299 299 299 298 298 298 298 297 296 295 294 293 292 291 291 291 291 291 291 291 291 291 291 291 291 291 291 291 291 290 290 290 290 289 289 289 289 289 288 288
316 318 319 312 307 311 314 314 315 315 312 312 312 313 312 312 313 315 314 313 317 321 321 319 316 316 315 312 314 317 311 305 304 302 299 297 298 299 300 301 301 301 301 300 300 299 299 299 298 298 298 297 296 295 294 293 293 292 291 291 291 291 291 291 291 291 291 291 291 291 291 291 291 291 291 290 290 289 289 289 289 289 288 288 288 288
318 317 319 315 311 314 316 312 308 311 312 312 314 315 314 313 314 317 315 312 313 316 318 318 316 316 315 309 310 314 308 301 301 301 299 298 299 300 300 301 301 300 300 300 300 300 299 299 299 298 297 296 295 295 294 293 292 291 291 291 291 291 291 291 291 291 291 291 291 291 291 291 291 291 290 290 289 289 289 288 288 288 288 288 288 288
315 317 319 317 314 314 311 304 301 304 308 311 313 314 314 314 317 319 317 313 312 311 312 313 314 315 310 303 304 305 302 299 299 299 299 299 299 300 299 300 300 300 300 300 299 300 299 299 299 298 297 296 295 294 293 293 292 291 291 291 290 290 290 290 290 291 291 291 291 291 291 291 291 290 290 289 289 289 288 288 288 288 288 288 288 288
313 317 318 316 315 312 308 304 301 303 307 311 312 312 313 315 315 316 315 314 315 313 312 312 313 314 308 299 298 299 298 299 300 300 300 299 299 299 299 299 300 300 300 300 300 300 299 299 298 297 296 295 294 294 293 292 291 291 291 290 290 290 290 290 291 291 291 291 291 291 291 291 290 290 290 289 289 288 288 288 288 288 288 288 288 287
314 317 317 316 317 314 311 310 309 308 310 312 312 311 312 314 313 312 311 312 313 314 314 313 314 314 309 300 298 298 297 298 298 299 301 300 300 301 301 302 301 300 300 300 300 299 298 298 297 297 296 296 295 294 293 292 291 291 290 290 290 290 290 290 291 291 291 291 291 291 290 290 290 290 289 289 288 288 288 288 288 288 288 287 287 287
315 316 315 316 317 316 315 316 315 314 312 311 311 310 310 311 312 313 313 312 313 313 313 312 313 313 308 304 305 303 302 303 301 299 300 301 302 303 303 304 302 300 300 300 300 299 299 298 298 297 297 296 296 295 293 292 291 291 290 289 290 290 290 291 291 291 291 291 291 290 290 290 290 290 289 289 288 288 288 288 288 287 287 287 287 287
315 315 314 316 317 315 317 317 313 313 314 313 313 312 311 310 310 312 314 314 313 313 313 312 312 313 310 308 309 308 307 309 305 298 298 301 302 303 304 304 302 300 301 300 300 299 299 298 298 297 297 296 296 295 294 292 292 291 289 289 290 290 290 291 291 291 291 290 290 290 290 290 290 290 290 289 289 288 288 287 287 287 287 287 287 287
316 315 313 315 315 314 316 316 311 311 315 316 314 313 312 310 309 310 312 313 313 313 313 312 311 313 312 310 311 311 311 310 304 299 300 303 304 304 303 302 301 300 300 300 299 299 299 299 298 297 297 296 296 295 294 293 292 290 289 289 290 290 291 291 291 291 290 290 290 290 290 290 290 290 289 289 288 288 287 287 287 287 287 287 287 287
317 315 312 313 313 312 313 313 311 311 313 313 314 314 311 309 308 309 309 310 312 312 312 312 311 312 311 310 311 311 309 307 305 303 303 303 303 303 302 301 301 301 300 300 299 299 299 299 299 298 298 297 296 296 295 294 292 290 289 289 290 290 291 291 291 291 291 290 290 290 290 290 290 290 289 289 288 288 288 287 287 287 287 286 286 286
313 315 313 312 313 312 311 309 309 310 310 311 312 312 310 308 307 308 308 308 308 310 310 309 309 309 309 309 309 307 304 304 304 303 303 303 303 303 302 301 302 301 300 299 299 299 299 299 299 299 299 298 297 296 295 294 292 290 289 289 290 291 291 291 291 291 291 290 290 290 290 290 290 289 289 288 288 288 288 287 287 287 286 286 286 286
310 312 310 310 313 311 307 306 307 308 309 310 311 310 308 307 307 306 307 307 307 307 308 307 307 307 306 304 304 304 303 303 303 302 302 303 303 303 302 301 301 301 299 299 299 299 299 300 300 300 299 299 297 296 296 295 293 290 289 289 290 291 291 291 291 291 291 291 291 290 290 290 289 289 289 288 288 288 288 287 287 287 286 286 286 286
309 309 308 310 313 311 306 306 306 305 306 308 309 308 307 307 307 306 305 306 306 307 307 306 306 307 305 302 301 302 301 299 300 301 301 302 302 301 301 301 301 300 299 299 299 300 300 300 300 299 299 299 298 297 296 295 293 290 289 289 290 291 291 291 291 291 291 291 291 290 290 289 289 288 288 288 288 288 287 287 287 286 286 286 286 285
308 309 309 310 312 309 305 305 306 305 307 308 307 308 307 306 306 306 304 304 305 305 307 306 306 307 305 301 301 302 299 297 298 300 301 300 300 300 300 300 300 300 300 300 300 300 299 298 298 297 298 298 298 298 297 296 293 290 289 289 290 291 291 291 291 291 291 291 290 290 290 289 288 288 288 288 288 287 287 287 287 286 286 286 285 284
306 308 309 308 310 308 302 302 306 307 308 308 307 308 308 307 307 306 305 304 303 304 306 305 305 305 303 302 303 303 300 298 299 299 299 298 298 298 298 298 299 299 299 299 299 298 297 297 296 297 297 297 297 297 297 295 293 290 289 289 290 291 291 291 291 291 291 291 290 289 289 289 288 288 288 288 287 287 287 287 286 286 286 285 285 284
306 307 308 307 308 305 300 302 307 308 308 307 304 303 303 305 306 305 304 304 303 303 304 304 304 303 301 300 300 300 299 299 298 297 297 296 296 296 296 297 297 297 297 297 297 296 296 296 296 296 297 297 297 297 297 295 292 290 289 289 290 290 291 291 291 291 291 290 290 289 289 288 288 288 287 287 287 287 287 286 286 286 285 285 284 283
307 306 306 307 306 303 302 304 307 307 306 306 302 297 297 300 302 302 303 302 301 300 302 303 303 301 298 298 298 298 297 296 296 295 295 295 295 296 296 296 296 296 296 296 296 296 296 296 296 296 296 297 297 297 296 295 292 290 289 289 290 290 291 291 291 291 290 290 289 289 288 288 288 287 287 287 287 287 286 286 285 285 285 284 283 282
305 307 306 307 306 304 304 304 306 306 306 306 304 299 298 299 301 302 303 303 302 299 298 300 302 300 298 297 297 295 294 294 295 295 295 296 296 296 296 296 296 295 295 295 296 296 296 296 296 296 296 296 297 297 296 295 292 290 289 290 291 291 291 291 291 290 290 289 289 288 288 288 287 287 287 287 287 286 286 285 285 285 284 283 282 282
302 305 307 308 307 306 305 304 305 305 306 307 305 300 296 297 298 300 301 303 302 297 295 298 301 300 297 295 294 293 293 295 296 296 295 296 296 295 295 295 295 295 295 295 295 295 295 295 295 295 296 296 296 296 295 293 291 290 290 291 292 292 291 291 290 290 289 289 288 288 288 287 287 287 287 287 286 286 285 285 285 284 283 282 282 282
299 302 305 306 307 307 306 306 306 306 306 307 304 297 293 294 297 298 300 302 299 294 294 297 298 297 295 293 292 293 294 297 297 296 295 295 295 295 295 294 294 295 294 294 294 294 295 295 295 295 295 295 295 294 293 292 291 291 292 292 292 292 291 290 289 289 288 288 288 288 288 287 287 287 286 286 286 285 285 285 284 283 282 281 282 282
299 301 302 305 307 307 306 307 306 306 306 305 300 295 292 295 298 300 302 303 297 291 293 295 294 295 295 292 292 293 296 297 297 295 294 295 294 294 293 293 293 293 293 293 293 293 294 294 294 294 294 294 293 293 292 292 292 292 292 292 291 290 289 289 289 288 288 288 288 288 287 287 287 286 286 286 285 285 285 284 283 282 281 281 281 282
298 300 301 303 305 306 307 307 306 306 305 300 295 294 293 295 299 301 303 302 295 292 294 295 295 296 295 292 292 294 295 296 295 294 294 294 293 293 292 292 292 292 291 292 293 293 293 293 293 293 292 292 292 292 292 291 291 291 291 291 290 289 289 289 288 288 288 288 288 287 287 287 286 286 286 285 285 285 284 283 282 281 281 281 281 282
298 299 300 302 303 303 305 306 305 305 302 295 292 292 293 297 301 301 300 298 295 294 295 295 295 295 295 293 293 294 295 294 294 294 293 293 293 292 292 292 292 291 291 291 292 292 292 292 292 292 291 291 291 291 291 291 291 291 291 290 289 289 288 288 288 288 288 288 287 287 287 286 286 286 285 285 285 285 284 282 281 281 281 281 281 281
300 300 300 301 302 302 302 303 304 305 300 293 292 294 294 298 302 300 297 296 295 295 296 295 295 295 294 294 294 294 294 294 294 294 293 293 293 292 292 292 292 291 291 291 291 292 292 292 292 291 291 290 290 290 290 290 290 290 290 290 289 288 288 288 288 288 288 287 287 287 286 286 285 285 285 285 285 284 283 282 281 281 281 281 281 281
300 301 301 301 301 302 303 303 303 301 296 294 296 298 297 298 300 298 297 296 295 295 295 295 295 294 294 294 294 294 294 293 293 293 293 293 293 292 292 292 292 292 292 291 291 291 292 292 291 290 290 290 290 290 290 290 290 290 290 289 288 288 288 288 288 288 287 287 287 286 286 285 285 285 285 285 284 284 282 281 280 280 281 280 280 280
299 298 299 300 300 300 301 301 298 294 293 294 298 299 298 298 298 297 297 296 295 295 294 294 294 294 294 294 293 293 293 293 293 293 293 293 293 292 292 292 291 291 291 291 291 291 291 291 291 290 290 290 290 290 290 290 290 289 289 289 288 288 288 288 288 287 287 287 286 286 285 285 285 285 285 284 284 283 281 280 280 280 280 280 279 279
293 291 292 296 298 296 295 294 293 292 293 294 296 298 297 297 298 297 296 296 295 295 295 294 294 294 294 294 293 293 293 293 293 293 293 293 293 292 292 291 291 291 291 291 291 291 291 291 291 290 290 290 290 290 290 290 290 289 289 289 288 288 288 288 287 287 287 286 286 285 285 285 284 284 284 284 283 282 281 280 280 280 280 279 278 278
290 289 291 295 296 296 295 293 292 293 293 294 295 297 296 296 296 296 296 296 295 295 295 294 294 294 293 293 293 293 293 293 292 292 292 292 292 292 292 292 291 291 291 291 291 291 291 291 291 290 290 290 290 290 290 290 290 289 289 289 288 288 288 287 287 287 286 286 286 285 285 284 284 284 284 283 282 281 280 280 280 280 279 278 277 277
293 291 293 294 294 295 295 292 290 291 292 292 294 295 295 295 296 295 295 295 295 294 294 294 294 293 293 293 293 293 293 293 292 292 292 292 292 292 292 292 292 291 291 291 291 291 291 291 291 291 290 290 290 290 290 290 290 289 289 288 288 288 287 287 287 287 286 286 285 285 284 284 284 284 283 282 281 280 280 279 279 279 278 277 277 276
293 293 294 294 293 293 292 290 288 290 291 291 293 294 294 295 295 294 295 295 294 294 294 293 293 293 293 293 293 293 293 293 292 292 292 292 292 292 292 292 292 292 291 291 291 291 291 291 291 291 291 291 290 290 290 290 289 289 289 288 288 287 287 287 287 287 286 286 285 284 284 284 284 284 283 282 280 280 279 279 278 278 277 276 276 276
291 293 293 293 293 293 292 290 290 292 293 292 293 293 294 294 294 294 294 294 293 294 294 293 293 293 293 293 293 293 293 293 292 292 292 292 292 292 292 292 292 292 292 291 291 291 291 291 291 291 291 291 290 290 290 290 289 289 289 288 287 287 287 287 287 286 286 286 285 284 284 284 284 283 282 281 280 279 279 278 277 276 276 276 276 275
291 294 293 292 293 294 292 291 291 292 293 293 293 293 293 293 293 293 293 293 293 293 293 293 293 293 293 293 293 292 292 292 292 292 292 292 292 292 291 292 291 291 291 291 291 291 291 290 290 290 290 290 290 290 290 289 289 289 288 288 287 287 287 287 287 286 286 285 284 284 284 283 283 282 281 280 279 279 278 277 276 275 275 275 275 274
Wind_Speed
6 4 3 5 6 8 9 9 6 4 6 5 4 3 3 4 5 3 3 4 0 1 5 4 4 8 5 2 3 2 5 8 9 8 8 7 7 7 8 8 8 8 9 7 6 5 5 6 7 8 8 8 9 10 11 12 13 15 15 16 17 17 14 13 13 12 12 11 10 9 8 8 8 6 3 4 4 2 1 1 2 4 5 5 6 7
4 5 7 8 8 8 7 6 5 4 5 4 4 3 3 4 5 4 2 4 1 3 4 2 2 8 4 0 3 1 3 5 5 6 7 7 7 8 8 9 9 9 9 7 7 8 10 11 12 13 13 14 15 16 16 16 16 16 16 16 17 15 13 13 12 12 13 13 11 12 12 10 10 9 7 7 7 4 3 2 1 1 2 3 4 5
2 4 9 9 6 5 3 5 7 5 4 2 3 2 4 4 3 4 2 4 3 2 3 3 3 7 2 2 4 5 5 5 4 5 6 6 7 8 9 10 10 10 10 10 11 13 14 15 16 17 19 20 21 21 21 21 20 19 19 19 18 17 17 17 16 16 18 18 17 17 16 14 14 15 12 11 11 8 7 6 6 5 4 3 2 2
3 5 9 8 8 7 3 4 6 4 2 3 3 3 4 3 2 3 3 3 3 1 1 2 4 6 0 3 3 5 6 7 6 5 6 6 7 8 9 10 11 13 14 14 15 16 17 18 19 20 21 22 22 23 23 23 23 23 23 22 21 21 21 20 19 20 21 20 19 18 17 16 16 17 14 12 12 10 9 9 9 8 8 7 6 5
5 4 2 5 7 7 4 4 6 5 2 4 5 6 5 4 5 5 2 2 2 3 1 2 4 5 0 1 1 3 5 6 6 6 7 6 7 8 9 11 13 15 17 18 19 18 19 19 20 21 21 22 22 23 24 23 23 23 23 23 22 22 21 21 20 19 19 19 18 17 17 16 16 16 13 11 12 11 10 10 10 10 9 8 7 7
6 4 5 7 4 5 6 4 5 7 3 3 5 10 10 7 6 3 1 2 3 3 2 3 2 4 3 1 1 1 2 3 3 4 6 6 7 8 10 12 14 16 18 19 20 20 20 20 20 21 21 21 22 23 23 22 22 22 22 22 21 20 20 20 19 17 16 16 16 16 15 14 14 14 13 12 12 11 10 10 10 10 9 9 8 8
3 3 5 5 5 6 5 4 6 7 5 2 4 9 9 6 6 4 3 3 1 2 1 2 1 4 5 3 1 1 1 2 1 2 3 6 7 9 11 13 14 16 19 20 21 21 21 21 20 20 20 20 21 21 21 20 20 20 20 19 19 19 19 18 17 15 13 14 15 14 13 13 11 11 12 13 12 12 11 10 10 10 10 10 10 10
3 3 3 5 6 5 5 5 6 8 7 3 3 5 7 7 7 6 6 4 2 2 3 3 2 2 4 3 2 0 1 2 1 1 2 6 8 10 12 13 15 17 19 21 21 21 21 20 20 20 19 19 20 19 18 18 18 17 17 17 17 17 17 17 16 13 11 11 12 11 10 10 9 10 12 13 12 12 10 9 10 11 11 11 11 11
3 5 5 7 5 4 6 4 8 11 5 4 3 6 6 6 6 5 6 3 0 1 3 4 1 1 4 3 3 3 1 3 2 4 6 9 10 11 13 14 16 18 19 21 21 21 21 20 19 19 18 18 18 18 17 16 15 15 15 14 14 15 15 14 13 10 9 8 8 8 8 8 10 11 12 12 12 12 10 8 10 11 11 11 11 11
1 3 6 8 5 5 4 1 6 9 3 3 7 7 5 5 5 4 4 3 2 1 4 5 3 2 4 4 2 2 2 5 5 5 7 11 13 12 15 16 18 19 20 21 21 21 20 19 19 18 18 17 16 16 15 14 13 13 12 11 11 12 12 11 10 8 8 8 7 8 8 10 12 13 13 12 11 11 9 9 10 10 11 11 10 11
0 1 2 4 4 5 5 3 2 3 5 9 8 6 6 5 4 3 2 3 2 2 5 4 2 2 2 4 3 3 4 5 7 5 6 11 15 17 18 19 20 20 21 22 22 21 20 19 18 17 17 16 15 15 13 13 12 11 10 9 8 10 10 10 9 7 7 8 8 9 10 12 14 14 12 11 11 11 9 9 10 10 10 10 10 11
2 0 1 3 5 7 8 5 4 4 6 7 4 4 4 2 3 3 4 3 1 4 5 2 1 2 3 4 4 5 5 4 8 8 9 13 19 22 22 22 22 21 22 23 22 21 20 19 18 17 16 15 14 13 12 11 10 9 8 6 6 9 10 9 8 7 8 9 9 11 12 13 14 13 11 10 10 10 9 9 10 9 9 9 9 9
2 4 2 2 6 7 6 4 4 4 3 3 3 5 4 1 3 2 3 1 2 5 3 1 1 2 5 6 5 6 6 6 7 8 13 21 25 26 26 24 23 23 23 23 22 21 20 19 18 17 16 15 14 13 12 11 10 8 8 6 5 8 10 9 9 9 9 10 10 11 11 12 12 11 9 9 9 9 9 9 9 8 8 9 9 10
2 4 1 4 3 7 8 5 3 1 2 4 4 5 4 3 3 1 3 2 3 3 2 1 1 1 4 5 5 6 4 4 6 6 13 25 31 30 29 26 24 24 24 24 23 22 20 19 18 17 16 15 14 13 11 10 9 8 8 8 6 8 11 10 10 9 9 10 10 10 10 10 9 8 7 7 8 8 8 8 9 9 10 10 11 12
3 3 5 5 2 8 9 5 6 6 4 4 3 5 4 4 4 3 3 3 3 2 2 2 1 3 3 2 2 3 2 3 5 7 10 20 29 30 28 27 26 25 25 24 23 22 21 19 18 17 16 15 14 13 12 11 10 9 9 9 8 8 11 11 10 9 8 9 10 9 9 8 7 7 6 7 7 8 8 8 9 10 11 12 13 13
3 4 4 0 1 7 8 4 5 7 3 2 2 4 3 4 4 2 3 5 3 2 3 2 3 4 3 1 3 3 2 2 3 8 11 18 25 27 27 28 27 27 26 26 25 24 22 21 19 18 17 16 15 14 13 12 11 10 10 10 9 9 11 11 10 9 8 9 9 8 7 7 7 7 7 7 7 7 8 9 9 10 11 12 13 13
2 3 3 3 2 2 3 3 3 2 3 2 2 3 4 3 6 4 2 2 3 1 3 2 2 4 1 2 3 3 2 2 1 7 13 18 23 26 28 29 29 29 29 28 27 25 23 22 20 19 18 17 15 14 13 13 12 11 10 10 10 10 11 11 10 9 8 8 7 6 6 6 6 6 7 7 7 8 9 10 11 11 11 12 13 13
4 1 2 2 2 1 1 6 6 5 3 4 3 5 3 2 4 3 1 2 3 2 4 1 3 3 0 2 2 2 2 4 3 5 9 15 22 26 29 31 31 31 30 29 27 26 24 23 22 20 19 17 16 15 14 13 13 12 11 11 10 11 11 11 10 9 8 7 6 5 6 5 6 6 6 7 8 9 10 10 11 12 12 13 13 14
4 3 2 1 2 1 1 5 5 6 5 4 4 3 3 3 2 2 2 1 1 3 4 2 3 3 4 4 2 4 8 8 5 5 7 13 22 28 31 33 34 33 32 31 29 28 26 25 23 21 20 18 17 16 16 15 15 14 14 12 12 11 11 11 10 9 8 6 5 4 4 4 5 6 7 7 8 9 10 11 12 13 13 14 14 15
3 3 2 1 0 1 2 2 3 1 4 4 2 2 2 2 3 2 2 2 2 2 4 4 3 3 5 6 7 10 12 10 9 7 9 17 27 33 36 38 38 37 36 34 32 30 28 26 24 22 20 19 19 18 17 17 16 16 15 14 13 12 12 11 10 9 7 6 4 3 3 3 4 5 7 8 10 11 12 13 14 14 15 16 16 16
3 2 2 1 2 1 1 2 5 6 3 2 2 1 0 1 2 1 1 2 3 3 2 3 5 5 4 3 7 9 8 9 13 12 13 20 29 33 37 41 41 40 38 36 33 31 28 26 25 23 22 20 20 19 19 18 17 17 16 15 14 13 13 12 11 9 7 5 3 2 1 2 4 6 8 10 12 14 15 15 16 16 17 17 18 18
2 2 3 2 1 3 3 3 3 4 4 5 4 5 5 4 4 2 2 0 2 2 4 3 5 7 3 2 4 5 4 8 14 13 13 21 29 33 38 40 40 39 39 37 34 31 29 28 26 25 24 23 22 22 21 20 19 18 17 16 16 15 14 13 11 9 6 4 3 1 1 3 6 8 11 13 15 16 17 18 18 18 18 19 19 19
3 3 4 2 3 4 4 3 1 2 2 3 2 3 4 4 5 5 4 3 2 1 1 3 3 6 2 2 3 4 5 8 15 17 15 20 28 33 35 35 36 38 38 36 33 32 31 29 27 26 26 25 24 23 22 22 21 20 18 18 18 17 15 13 11 8 6 5 4 3 3 5 8 11 14 16 17 19 19 20 20 20 20 21 21 21
2 3 3 1 2 2 3 3 1 1 3 3 1 1 4 3 3 3 4 3 3 3 2 2 4 5 1 1 3 6 7 7 13 19 18 19 24 28 30 33 37 39 37 34 34 33 33 31 29 29 27 26 25 24 24 23 22 21 20 20 19 18 16 13 10 8 7 6 5 4 5 8 11 14 16 18 19 20 21 21 21 21 22 22 23 23
4 2 4 3 0 2 3 2 2 3 0 2 2 2 2 3 5 3 2 3 1 5 7 3 8 7 1 1 3 3 4 5 11 18 20 19 21 25 30 35 39 39 36 36 37 36 35 34 33 31 29 27 26 25 25 25 24 23 23 22 21 19 16 13 10 9 9 7 5 5 7 10 13 15 17 18 20 21 22 22 23 23 24 24 24 24
7 2 4 6 5 5 4 3 4 2 1 2 2 3 4 5 7 4 3 3 4 4 8 7 10 5 1 2 3 3 2 5 9 14 18 20 21 24 28 33 38 40 39 40 40 39 37 36 34 32 31 29 27 26 26 26 25 25 24 23 21 19 16 13 12 11 9 7 6 6 8 11 14 16 17 19 21 22 23 23 24 24 24 25 25 25
4 1 5 6 6 7 6 5 5 4 4 3 4 6 7 6 8 6 4 4 5 3 5 11 9 4 4 4 4 5 4 5 7 9 15 20 22 23 25 30 35 39 41 42 42 40 38 36 36 34 32 30 28 28 28 27 27 27 26 25 23 20 17 15 13 11 9 7 6 8 10 12 15 17 18 19 20 22 23 23 24 24 24 25 25 26
3 2 6 6 7 6 5 6 6 5 5 7 7 8 8 7 8 8 7 7 6 5 10 9 5 5 10 6 6 7 6 5 6 9 14 17 19 21 23 26 29 35 40 41 41 40 39 38 37 35 33 32 30 29 28 28 28 28 27 26 24 21 19 16 13 11 9 8 8 10 12 14 16 18 18 19 20 22 24 24 24 24 25 25 26 26
4 3 4 4 6 5 4 5 6 5 4 5 7 9 10 9 10 11 12 11 8 7 13 5 8 8 10 5 7 9 9 8 9 11 13 13 14 18 21 24 27 32 38 41 42 41 40 38 37 35 34 33 32 31 30 29 29 30 30 28 26 23 19 16 14 11 10 10 11 12 14 16 18 18 18 19 21 23 24 25 25 25 26 26 26 26
2 2 2 4 5 4 3 4 5 5 3 2 6 10 10 10 11 12 14 13 10 11 13 4 4 10 7 5 8 10 9 9 9 9 10 10 13 16 19 23 26 29 35 40 41 40 38 36 35 34 34 34 34 33 31 31 32 33 33 31 28 24 20 17 15 13 12 12 13 14 16 18 19 19 19 20 22 24 25 26 26 27 27 27 26 26
2 1 1 3 3 3 1 3 3 3 3 3 8 12 10 8 9 11 12 9 6 9 11 5 5 11 6 8 10 10 8 8 9 10 12 12 15 17 19 21 23 26 31 35 35 32 31 30 30 30 32 34 35 35 32 31 33 35 35 32 28 24 21 18 16 15 15 15 15 17 18 19 19 19 20 21 23 25 26 27 28 28 28 27 27 27
2 1 2 3 2 3 1 4 4 4 3 3 13 18 15 10 9 9 8 7 9 10 10 6 8 11 6 7 10 11 10 10 12 14 16 17 17 18 18 19 20 24 26 26 25 23 22 22 23 25 28 30 33 34 33 31 33 36 36 33 29 24 21 19 17 17 17 17 18 19 20 20 20 20 21 22 24 26 27 28 29 29 29 28 27 28
4 4 2 3 3 2 1 6 5 5 2 6 13 15 14 12 10 7 5 7 11 10 7 8 10 9 4 6 7 7 7 10 14 18 19 19 18 17 18 19 19 21 21 20 20 18 17 19 20 21 22 23 26 29 31 32 33 36 36 33 28 24 21 20 19 19 20 19 19 20 20 20 21 21 22 23 24 26 28 30 30 30 30 28 28 28
3 5 3 3 3 0 1 5 5 3 6 9 5 4 7 11 13 12 9 9 10 9 8 8 5 2 4 7 8 8 10 12 17 20 19 17 15 15 15 16 16 16 17 17 17 16 16 17 17 17 18 18 20 24 29 32 33 34 35 32 27 24 23 22 22 22 22 21 20 21 21 21 22 22 23 24 25 28 30 31 31 31 29 29 29 29
5 4 3 3 2 1 2 4 3 7 9 6 3 2 2 5 8 9 8 8 11 11 10 8 5 5 8 12 14 15 17 17 16 17 15 13 14 13 13 15 16 16 16 16 16 16 16 16 16 17 18 19 19 22 27 31 32 33 33 31 28 26 24 23 24 24 23 22 22 23 23 23 24 24 24 25 27 29 31 32 31 30 29 29 29 29
6 5 2 2 3 2 3 5 7 5 3 3 3 2 1 4 5 2 4 7 9 11 11 10 10 11 13 18 19 16 15 14 14 17 17 14 14 13 13 16 16 15 15 15 14 16 16 16 17 17 18 18 18 20 25 29 30 31 31 30 28 26 25 26 26 24 23 22 24 25 25 25 25 25 25 27 29 31 32 32 31 29 29 28 28 28
6 6 3 3 4 3 3 6 5 4 6 7 5 2 3 5 6 4 4 7 8 9 10 9 10 13 15 18 17 11 8 8 11 17 20 17 16 16 16 15 14 13 13 13 13 14 15 15 16 16 16 16 16 18 23 26 27 28 29 29 27 27 27 26 24 23 23 24 26 26 27 26 26 26 27 29 31 32 32 31 30 28 28 28 28 28
2 5 6 6 5 5 5 5 4 4 9 10 5 3 4 7 8 7 3 5 4 10 17 15 11 13 13 12 9 5 3 2 5 13 18 13 12 14 14 13 12 11 12 13 13 14 15 15 16 15 15 15 15 17 20 23 25 26 27 27 27 27 26 23 22 22 24 26 27 27 28 27 27 28 29 30 31 32 31 30 29 28 28 28 29 29
1 0 2 4 5 6 6 6 6 7 6 4 4 2 4 11 12 9 2 5 3 12 22 19 13 14 14 11 10 8 4 1 4 14 16 10 7 9 9 9 9 10 11 11 12 13 14 15 16 16 16 15 15 16 19 21 23 24 25 26 26 24 22 20 21 23 25 26 28 29 29 29 29 29 30 31 31 31 30 29 28 28 28 28 29 31
2 1 1 4 6 7 7 6 5 4 2 3 5 5 9 14 14 8 3 8 5 12 21 19 16 18 16 13 12 9 5 7 9 11 10 6 6 7 7 7 7 8 9 10 11 13 14 15 16 15 15 15 15 16 18 20 22 23 24 24 23 21 20 20 21 23 25 27 29 30 30 30 30 29 30 31 31 30 30 29 28 27 28 28 30 32
1 1 2 4 7 9 10 7 3 3 3 4 7 14 17 12 7 1 6 6 8 13 17 18 19 19 15 14 15 12 13 17 16 10 5 5 7 7 7 6 6 7 8 10 11 13 14 15 15 14 14 14 15 17 18 20 22 24 24 24 23 21 20 20 22 24 26 28 29 30 30 30 29 30 30 31 31 30 30 28 28 28 28 29 31 33
2 1 1 4 5 5 5 4 3 4 3 7 10 15 16 7 1 5 5 6 10 12 11 14 17 16 15 18 20 18 19 19 18 14 8 7 8 8 8 8 7 7 9 11 13 15 15 16 16 16 15 15 16 18 19 21 23 24 25 25 24 23 22 23 24 25 26 28 29 30 30 30 29 30 30 30 31 31 30 28 28 28 29 31 33 35
4 3 2 4 4 2 2 3 4 5 5 17 15 6 5 5 4 5 6 7 10 10 10 13 18 18 18 20 21 21 19 17 16 15 12 12 12 11 11 9 8 9 10 11 14 16 17 19 19 18 18 17 18 19 20 22 25 26 27 27 25 24 24 24 25 25 26 27 28 29 29 29 29 30 30 30 31 30 29 28 28 29 30 32 34 36
3 4 4 4 3 4 4 6 4 2 10 25 19 5 9 14 8 3 4 7 9 11 13 15 17 18 19 19 20 21 20 18 17 16 15 16 16 15 13 12 11 11 11 12 14 16 19 22 22 20 19 19 19 20 22 23 26 27 28 28 26 26 25 24 24 25 26 27 28 28 29 29 29 29 30 30 30 30 29 28 28 29 31 33 35 36
4 4 5 3 3 4 5 5 2 2 15 28 22 11 15 19 15 11 10 10 10 12 15 17 17 18 19 19 19 20 20 19 18 17 17 18 18 18 17 15 13 13 13 13 15 17 21 25 24 22 21 21 21 22 23 24 26 28 29 29 28 26 25 24 24 25 26 27 28 28 29 29 29 29 30 29 30 29 28 28 29 31 32 33 34 35
2 2 4 2 2 3 3 3 3 4 15 27 24 14 13 16 16 16 17 16 15 15 16 18 18 18 18 20 21 20 19 18 18 18 18 18 19 20 20 18 16 15 15 16 17 18 23 27 27 25 24 24 24 24 24 25 27 29 29 29 28 26 24 23 24 25 25 27 28 28 29 29 29 29 29 29 29 29 28 29 30 32 33 33 33 34
2 4 4 1 3 3 3 3 5 4 11 22 23 18 15 15 17 19 20 20 19 19 18 18 18 18 19 20 20 19 18 18 19 19 18 18 19 20 22 23 21 18 18 18 18 20 24 29 32 31 29 28 28 27 26 27 28 29 30 30 29 26 24 24 24 25 25 27 28 29 29 29 29 29 29 29 29 28 28 29 31 32 33 32 32 32
2 5 4 4 5 4 3 4 3 3 7 14 18 19 19 18 20 21 21 20 20 20 21 20 19 20 21 20 19 19 19 19 20 20 20 20 20 20 21 25 25 22 21 20 20 22 25 28 33 35 34 33 31 29 28 28 29 30 31 31 28 26 24 24 24 25 26 27 28 29 29 29 30 29 29 29 28 28 29 30 31 32 32 31 30 30
4 5 4 2 2 2 3 2 2 1 5 9 16 20 21 22 23 23 22 23 23 23 23 23 23 22 22 21 21 22 22 22 22 21 23 24 24 22 22 24 25 26 25 23 23 25 26 28 31 34 36 37 35 33 32 31 31 31 31 30 28 26 24 24 24 25 26 27 28 29 29 29 30 30 29 29 29 29 30 30 30 31 30 28 27 27
5 4 3 3 2 4 4 6 8 4 4 11 18 21 22 22 23 24 24 25 25 25 26 26 26 25 24 24 24 23 24 25 24 24 26 27 27 26 25 25 26 27 27 26 26 27 29 29 30 31 34 36 37 37 35 33 32 32 32 30 28 25 24 24 25 25 27 28 28 29 29 29 30 30 29 29 29 30 31 30 29 29 29 28 26 25
10 10 7 5 5 5 6 11 16 13 11 15 20 22 21 21 22 23 24 24 24 24 25 25 26 26 25 24 24 24 25 26 25 26 28 28 28 27 27 27 28 28 27 28 28 29 31 31 31 31 32 34 35 37 36 34 33 33 33 31 28 25 25 25 26 26 27 28 28 29 29 29 29 29 29 29 29 31 31 30 26 23 23 25 25 23
Wind_Direction
148 145 171 208 203 199 204 198 191 154 125 131 133 141 184 220 261 246 246 287 273 194 272 251 239 270 270 301 353 79 105 95 102 108 106 113 119 120 122 118 115 111 103 95 93 93 89 92 96 100 105 109 111 110 107 105 101 100 102 102 100 98 99 101 99 101 107 109 116 128 136 139 135 136 157 145 143 172 239 268 288 302 315 318 310 306
139 177 218 223 206 197 200 174 147 120 116 115 136 186 241 225 252 260 251 311 355 181 269 343 289 275 256 257 349 52 105 76 89 109 111 122 124 124 125 118 116 111 106 107 108 109 106 105 107 107 110 113 112 111 109 105 103 104 106 104 102 104 106 103 100 100 103 100 99 104 104 105 111 106 105 115 112 90 82 86 49 21 359 338 323 317
137 216 239 231 180 124 96 141 159 168 154 143 135 174 259 232 250 288 303 336 8 177 263 4 327 276 255 78 26 52 80 76 98 124 123 131 129 125 123 118 121 120 121 125 120 117 115 112 113 113 111 110 107 106 104 103 103 105 104 103 103 105 103 100 99 99 98 96 94 93 93 95 99 96 93 96 94 86 84 86 82 78 72 58 39 24
186 243 246 217 158 131 85 116 144 149 169 188 159 175 246 223 190 269 284 320 2 89 253 354 315 280 220 81 41 60 89 93 101 123 126 134 130 122 122 122 127 129 129 129 124 121 119 116 114 111 107 105 103 103 102 102 102 102 101 101 102 101 100 99 98 95 94 94 95 95 97 99 98 94 92 94 95 94 92 91 90 87 81 72 66 61
221 242 185 127 140 155 138 118 139 148 206 233 199 203 231 209 207 236 277 308 347 27 20 23 326 294 282 130 46 80 106 99 102 125 123 128 128 123 126 129 132 132 129 128 125 122 120 117 112 108 105 104 105 103 101 101 101 100 100 99 99 99 97 96 94 92 93 94 96 97 98 98 96 97 99 99 95 94 94 91 85 80 75 67 61 57
253 227 141 101 100 147 143 163 182 167 188 273 224 213 221 206 202 225 29 30 14 358 356 43 353 295 318 321 179 140 111 87 103 122 117 126 132 135 138 135 137 134 131 129 127 125 121 116 111 107 107 106 105 103 100 99 98 98 98 97 96 95 93 91 89 89 90 92 93 93 94 96 98 103 105 97 91 90 86 79 74 70 67 61 57 54
245 193 151 131 131 146 154 205 217 165 147 278 237 206 207 182 164 166 130 105 113 255 312 50 170 260 309 314 215 157 122 60 69 102 128 148 147 150 149 143 143 138 134 133 129 125 120 115 112 109 107 106 103 100 97 96 96 96 96 95 95 93 91 88 86 88 88 89 92 91 94 99 99 100 97 89 84 82 77 74 73 69 65 60 54 51
169 140 130 143 140 150 175 217 215 161 140 225 227 155 158 165 171 171 149 152 205 245 323 355 155 240 288 277 300 100 137 27 15 279 213 176 166 162 156 151 149 143 138 135 130 126 122 117 115 112 109 107 102 99 97 97 96 96 95 95 95 93 91 90 90 93 93 90 92 91 93 98 94 90 91 89 84 81 80 80 77 71 67 62 56 52
139 160 182 166 151 182 203 216 186 161 155 236 183 117 134 152 156 146 133 153 211 43 298 297 165 239 273 265 339 18 294 295 248 234 225 192 180 171 164 159 154 149 144 139 134 130 126 122 119 116 112 108 105 103 102 102 100 99 99 99 99 98 97 98 100 104 104 97 94 92 91 96 97 93 92 93 92 90 87 82 78 72 67 63 58 54
120 189 191 155 156 206 214 263 183 175 190 169 124 91 80 78 86 100 112 128 74 68 242 248 193 203 275 279 329 47 269 255 220 221 215 193 187 178 172 167 161 156 150 143 140 135 131 128 124 120 117 113 113 113 111 109 107 106 105 105 108 109 107 109 111 112 111 106 100 98 97 96 99 99 101 104 101 97 91 85 81 75 68 64 57 53
16 111 173 149 172 180 139 58 64 144 136 131 112 75 62 44 43 53 62 92 71 292 249 247 215 184 265 276 230 187 231 206 176 193 202 190 190 185 179 175 169 163 155 148 144 140 136 133 129 126 124 123 122 122 120 119 118 116 115 115 117 116 115 116 117 114 111 108 102 101 101 99 102 107 111 113 105 99 95 86 79 72 66 60 51 46
353 104 243 183 162 130 104 63 42 70 108 117 99 91 96 6 13 28 357 41 97 254 258 282 329 179 212 257 236 219 241 201 172 182 182 185 193 189 183 180 175 167 159 154 150 146 143 140 138 137 135 134 133 132 132 130 128 126 126 131 128 123 123 124 125 122 116 115 111 109 109 108 111 116 117 114 105 98 90 78 73 67 60 51 42 34
275 238 256 146 163 150 118 77 48 37 55 88 95 105 109 351 14 8 314 331 211 246 271 338 349 216 226 249 235 213 222 216 200 191 181 181 188 189 186 182 178 171 165 160 155 153 151 149 147 146 146 145 144 144 144 143 143 140 140 150 149 136 135 135 136 134 129 127 122 120 119 115 116 118 113 104 95 86 75 66 58 47 41 31 22 15
248 283 228 136 190 189 158 132 135 182 167 159 148 129 126 100 73 285 270 286 263 256 284 311 303 242 256 264 232 205 206 216 212 202 189 186 185 186 185 183 180 176 170 165 163 161 158 156 156 155 155 156 156 155 156 156 158 158 157 165 171 153 145 145 144 142 141 137 129 126 121 113 111 105 94 84 73 63 52 42 31 22 18 11 6 4
176 269 203 166 185 184 175 167 157 148 148 181 165 129 141 147 155 215 218 212 246 277 311 307 243 192 205 264 270 257 299 287 227 206 193 192 189 186 185 186 185 181 174 170 169 168 165 164 164 164 164 165 166 166 168 169 171 174 171 172 176 164 153 152 150 149 150 142 131 124 115 106 99 87 76 67 56 47 35 25 17 9 5 2 360 357
158 253 240 8 96 161 172 182 135 117 121 209 138 112 151 177 153 163 183 174 182 292 296 242 226 218 192 245 321 330 329 325 236 201 187 191 192 190 191 191 189 185 179 176 176 174 173 172 171 172 172 174 176 176 178 180 180 182 181 177 177 171 161 157 156 154 150 142 130 119 108 98 87 75 65 56 47 36 26 16 8 3 359 355 351 347
143 263 296 24 43 116 159 170 122 116 160 153 138 169 210 175 118 119 184 100 84 283 270 198 240 290 336 273 318 15 351 329 267 194 185 187 190 193 196 195 192 188 183 181 181 179 178 178 178 179 179 181 183 184 186 187 186 187 189 187 183 176 168 163 162 157 148 139 129 116 103 89 78 65 52 43 34 25 19 9 2 359 353 347 341 336
151 166 325 66 101 344 107 113 70 32 93 125 179 202 186 124 86 104 179 21 51 250 274 248 229 261 222 252 311 19 285 267 239 196 185 186 190 196 200 198 195 191 187 186 184 184 185 184 184 185 185 186 188 191 193 192 190 189 189 190 188 183 176 170 167 161 152 143 131 116 100 84 67 50 36 28 21 15 7 357 353 350 345 342 337 332
136 117 321 28 135 239 36 99 77 21 38 107 175 167 114 128 127 101 140 195 211 248 286 287 246 236 196 203 210 209 224 221 202 197 193 192 195 199 202 200 197 193 191 190 189 188 189 189 189 189 189 190 192 196 197 196 195 191 187 186 185 185 181 177 175 171 164 154 137 114 89 68 48 34 21 12 5 358 350 343 341 339 337 336 333 331
117 130 246 302 242 224 12 81 160 177 21 41 83 68 40 130 151 147 146 160 182 234 288 289 281 257 224 200 182 198 211 193 177 192 205 203 200 200 201 200 198 195 194 193 192 191 191 192 193 193 194 197 199 199 200 199 197 194 190 189 189 190 189 186 183 180 173 159 137 110 75 48 26 14 1 353 348 342 338 335 334 332 331 330 329 329
92 133 185 252 333 178 176 200 186 181 154 110 114 126 82 89 100 155 155 111 132 175 228 276 283 268 241 196 185 203 212 186 182 191 202 206 204 202 203 202 199 197 196 196 193 192 194 195 196 197 198 201 201 201 201 200 199 197 195 195 195 198 198 195 192 187 179 161 141 124 51 11 356 350 344 341 339 336 334 333 331 330 328 328 328 326
126 140 149 154 182 186 226 259 213 199 174 156 173 187 180 151 118 140 239 198 113 178 189 196 271 273 247 181 187 204 214 196 195 196 200 206 206 205 206 205 203 202 200 198 195 194 196 197 199 200 201 202 203 203 202 202 202 201 199 199 200 202 202 200 198 193 188 183 181 211 300 327 335 338 337 337 335 333 332 330 329 328 327 326 324 323
120 108 120 165 206 207 256 299 240 227 143 117 171 187 160 145 134 153 213 223 142 196 156 116 270 282 265 177 210 227 231 212 203 202 204 208 207 208 209 208 208 208 205 201 198 198 200 201 202 203 204 204 205 205 205 205 205 203 202 203 203 204 204 204 203 200 202 213 222 250 297 322 333 337 337 336 334 332 330 327 326 325 323 323 322 321
109 109 125 195 306 319 323 338 343 358 88 107 274 173 147 161 151 163 193 167 156 197 138 88 260 266 271 231 266 259 253 231 209 208 210 212 211 211 211 211 211 211 208 204 202 204 205 205 206 206 206 207 207 208 209 209 207 205 206 207 206 207 208 207 208 211 218 227 240 271 307 328 336 337 336 333 330 328 326 324 323 322 321 321 320 319
172 138 141 153 96 344 336 342 317 331 13 189 214 168 164 128 99 90 113 104 207 199 147 165 252 252 239 282 304 297 263 240 220 213 213 216 216 214 214 214 214 213 209 206 206 209 209 209 210 210 209 210 211 212 213 211 210 209 208 208 208 209 210 211 214 221 228 236 255 291 320 333 335 333 330 327 326 325 324 322 321 320 319 318 316 315
166 164 164 168 185 200 196 195 217 238 198 193 177 179 196 157 144 151 121 144 226 187 144 204 246 262 336 275 279 304 268 241 231 218 216 221 222 221 221 220 218 214 210 209 210 212 212 212 214 214 214 214 215 216 216 213 213 212 209 208 209 211 212 215 221 227 233 246 271 305 322 326 326 324 321 320 321 322 321 319 318 317 316 314 314 313
138 215 195 187 203 202 187 199 202 146 132 184 201 192 197 188 177 163 124 178 205 158 192 230 233 247 268 235 235 257 239 231 238 221 215 220 222 226 229 227 223 217 213 212 214 215 214 215 217 218 218 218 218 219 218 217 216 213 210 209 211 215 217 221 226 230 238 254 279 301 310 314 315 314 312 311 315 318 318 316 315 314 313 312 311 310
103 217 212 200 220 211 167 182 189 147 155 188 193 201 207 193 175 171 193 209 161 152 239 237 161 213 246 211 197 237 231 220 236 228 222 224 228 231 233 233 229 223 218 217 218 218 218 218 219 221 222 222 222 222 220 220 219 215 212 213 216 219 220 223 228 232 241 257 275 290 299 304 306 304 302 304 310 315 316 315 314 314 313 311 309 308
118 212 214 189 223 221 135 153 176 157 167 182 187 210 210 185 174 185 212 217 174 195 248 230 137 212 244 180 181 216 216 217 231 235 234 237 240 240 238 236 232 227 223 221 221 221 221 221 222 224 226 227 226 224 222 221 219 215 214 216 218 220 222 226 230 234 244 258 272 284 292 296 296 295 295 300 308 313 316 316 316 314 313 311 308 306
137 210 193 170 225 239 133 150 171 152 156 207 221 227 214 187 186 196 214 220 202 225 254 251 178 240 238 165 197 218 213 217 230 240 243 244 247 248 243 239 237 232 227 223 223 224 224 226 228 230 232 232 230 227 225 223 220 217 217 217 218 219 223 228 232 237 247 258 270 280 285 288 288 289 291 299 307 311 314 316 316 315 313 311 308 306
169 182 100 133 222 279 76 100 108 123 149 237 256 251 231 199 202 213 222 220 205 234 251 246 253 262 234 184 211 220 204 207 222 236 244 248 251 251 246 243 242 238 232 227 225 227 230 232 235 238 240 239 235 230 227 226 223 219 218 218 219 221 225 229 234 240 249 258 268 275 280 282 283 285 291 299 305 308 312 315 315 315 313 310 308 306
173 172 52 102 178 258 163 118 100 74 67 278 266 259 244 220 214 218 213 199 199 223 239 232 245 258 234 180 206 219 212 214 228 240 247 252 252 250 248 248 249 244 236 229 227 229 236 240 241 244 246 245 241 234 230 228 223 220 219 219 220 223 227 232 237 244 251 258 265 271 275 277 279 284 291 298 303 307 311 314 314 314 312 309 307 305
153 150 117 135 174 255 130 134 126 81 44 267 258 250 239 227 223 220 209 204 204 204 213 226 239 246 205 167 200 223 218 221 239 250 255 258 257 255 254 253 252 245 235 230 233 239 246 248 246 246 249 250 247 240 234 230 225 222 220 219 222 227 231 236 241 247 252 256 262 268 271 274 278 285 291 297 302 306 310 312 313 312 310 307 305 305
157 151 161 172 169 255 98 115 117 141 228 248 254 219 210 210 213 218 218 209 200 195 209 229 238 196 160 179 202 225 235 240 252 258 261 262 260 257 258 258 256 251 243 241 247 253 255 254 253 254 256 257 254 244 235 230 226 223 221 220 225 231 236 240 246 250 252 255 261 266 270 274 279 284 290 296 301 305 309 311 311 310 307 305 305 304
168 159 167 164 138 147 119 112 158 214 229 251 355 21 209 188 189 207 225 217 203 205 219 232 232 208 210 220 228 239 251 257 262 262 261 260 257 252 251 253 253 253 254 256 259 263 263 260 258 258 257 257 253 240 231 227 225 223 221 222 228 235 239 244 248 250 252 257 263 267 270 274 279 284 291 297 302 305 308 310 309 308 306 304 304 304
166 161 161 157 144 129 134 177 212 242 272 288 332 343 23 85 105 150 266 252 216 205 210 220 232 236 235 240 244 248 258 268 273 269 263 259 259 254 249 251 253 252 255 257 257 257 256 253 252 253 254 256 249 234 226 226 226 223 221 225 232 238 243 247 248 250 254 261 265 267 270 275 280 286 292 297 302 306 308 308 307 306 304 303 303 303
166 168 176 191 187 166 177 212 236 311 300 264 249 209 165 147 142 155 229 254 230 200 194 204 229 240 239 242 247 248 260 284 292 277 267 261 259 257 254 255 254 248 245 243 241 240 237 237 242 245 247 248 242 231 225 224 224 222 223 228 236 242 246 247 249 253 260 264 266 269 273 277 281 286 292 297 302 305 306 306 306 304 303 302 302 304
181 184 186 200 208 186 186 225 244 255 254 244 220 186 166 160 152 135 160 271 255 187 188 196 218 233 233 234 227 210 228 318 305 275 268 264 255 250 248 246 240 231 228 228 230 232 231 231 234 235 236 235 232 227 225 223 222 223 227 235 242 245 246 248 253 260 265 268 270 272 275 278 281 286 292 297 302 304 305 305 304 303 303 302 303 305
60 112 176 204 219 200 200 220 220 226 245 225 185 196 156 151 138 104 69 286 253 185 191 196 209 226 229 214 187 162 133 125 253 266 270 265 243 232 223 215 212 210 215 221 227 231 233 233 232 229 225 222 220 220 221 223 225 229 236 242 244 244 246 251 260 266 269 271 273 274 275 277 281 286 293 299 302 304 304 305 304 302 302 303 304 307
99 89 176 212 219 216 219 226 228 239 248 170 161 163 157 150 129 91 312 272 233 195 196 195 204 222 224 202 173 153 159 200 233 268 275 247 209 201 191 192 201 210 221 228 234 235 234 232 229 225 220 217 217 220 224 228 232 237 241 242 241 242 250 258 264 268 270 272 272 273 274 277 282 288 295 300 302 303 304 304 303 301 302 303 305 308
149 155 190 213 223 227 228 234 257 252 209 182 161 151 147 137 108 121 250 233 185 193 199 197 208 222 217 189 175 188 219 227 237 259 258 201 198 196 197 212 222 229 238 241 243 243 238 233 227 222 221 221 222 226 229 233 237 239 239 238 240 246 253 258 261 265 268 270 271 272 274 277 283 290 296 300 302 303 304 303 302 301 302 304 306 309
160 133 205 216 216 227 235 240 269 265 180 147 152 153 147 137 240 229 205 161 168 194 208 204 209 216 214 203 202 217 236 241 244 245 225 207 217 218 218 229 237 245 252 249 244 240 237 233 225 218 217 219 222 227 231 235 238 239 237 238 243 249 252 254 259 263 267 269 270 272 275 278 284 291 296 299 301 303 303 302 300 301 303 306 307 309
169 152 198 222 190 171 248 223 238 271 157 137 134 134 160 183 202 177 163 173 193 209 218 211 208 209 213 217 220 230 241 245 246 246 233 225 231 230 228 235 246 256 261 256 250 243 233 226 220 217 218 220 222 226 230 234 237 237 238 241 245 247 249 253 258 262 266 269 271 273 276 280 286 292 296 298 300 302 301 300 299 301 304 306 307 309
193 168 190 233 188 153 210 217 218 281 161 155 152 167 207 207 212 194 193 215 218 215 214 215 216 215 217 222 226 232 239 243 246 248 242 235 234 231 233 241 246 252 259 260 257 249 233 223 219 219 222 223 225 229 232 235 238 239 241 243 244 245 248 253 258 263 266 269 271 273 276 281 287 292 295 297 298 299 299 298 298 301 304 306 308 309
226 181 172 210 205 168 196 218 212 119 168 174 180 198 206 213 230 242 240 241 234 226 220 220 223 223 222 226 230 233 240 244 245 245 243 242 239 233 234 241 244 247 253 254 254 247 233 225 224 225 227 226 228 232 235 238 241 243 244 244 243 244 249 255 260 264 267 269 271 274 277 282 287 291 294 295 297 297 297 297 299 301 304 306 308 309
258 145 130 132 251 249 247 218 171 151 183 189 196 208 213 220 232 238 241 244 243 241 235 230 232 232 228 229 231 235 240 243 244 245 246 250 250 242 236 238 240 243 244 245 247 246 236 229 228 229 230 231 231 234 237 241 244 246 247 245 243 245 250 256 261 265 268 270 273 275 278 283 287 291 293 294 295 296 295 297 299 302 305 307 308 308
275 163 150 195 238 243 267 218 167 167 196 198 203 213 219 223 229 234 240 246 249 251 247 241 240 239 235 234 235 238 244 245 244 246 247 251 255 250 242 239 240 244 247 247 249 249 241 235 233 233 234 235 235 237 241 244 246 248 247 244 242 245 251 257 262 266 269 271 273 276 279 284 288 291 292 293 294 294 295 297 300 303 306 308 308 308
228 163 180 236 223 203 235 234 192 193 216 211 214 222 225 229 234 235 239 246 252 255 254 250 247 243 243 245 244 244 249 249 247 250 253 255 257 256 249 244 243 246 250 251 249 248 244 241 239 239 240 241 241 242 245 248 250 249 246 242 242 246 252 258 263 267 269 272 274 276 280 285 288 290 291 292 292 293 294 297 300 303 305 307 306 306
161 168 187 203 208 234 264 237 159 341 284 242 227 226 230 236 241 241 245 249 252 256 258 258 256 254 254 257 257 256 257 258 256 258 260 261 261 260 255 251 250 250 252 252 251 250 248 246 245 244 245 246 246 246 248 251 252 250 245 242 242 246 254 259 264 267 269 272 274 277 282 286 288 289 290 290 291 292 294 297 300 302 304 304 304 304
158 194 183 132 200 252 239 187 173 180 261 244 234 235 240 245 246 246 249 253 255 259 261 261 263 264 263 264 266 264 263 265 265 263 264 265 266 265 263 261 259 256 254 254 255 252 249 248 248 248 248 248 249 249 250 253 253 249 245 241 241 247 255 260 264 267 269 272 275 278 282 284 286 287 288 288 289 291 294 297 299 302 303 304 304 305
192 213 203 173 212 235 209 197 197 201 224 241 247 253 257 257 254 251 254 259 261 263 265 265 266 267 267 268 269 268 268 271 271 269 268 269 270 271 270 268 265 262 260 258 256 252 249 247 248 249 248 248 248 248 249 251 250 248 243 240 242 248 255 259 263 266 269 272 275 278 281 282 283 283 284 286 288 291 294 296 298 299 301 302 303 304